Tracking 29892 objects as of 21-Nov-2024
HD Live streaming from Space Station
objects crossing your sky now

AEROCUBE 4.5B

Track AEROCUBE 4.5B now!
10-day predictions
AEROCUBE 4.5B is classified as:


NORAD ID: 38768
Int'l Code: 2012-048L
Perigee: 377.1 km
Apogee: 475.9 km
Inclination: 64.6 °
Period: 93.0 minutes
Semi major axis: 6797 km
RCS: Unknown
Launch date: September 13, 2012
Source: United States (US)
Launch site: AIR FORCE WESTERN TEST RANGE (AFWTR)
Your satellite tracking list
Your tracking list is empty




NASA's NSSDC Master Catalog

Two Line Element Set (TLE):
1 38768U 12048L   24325.28967159  .00106615  00000-0  17342-2 0  9998
2 38768  64.6470  78.6447 0072676 315.6472  43.8859 15.49100299285375
Source of the keplerian elements: AFSPC